Location: Puketoi
(40.5833°S, 176.0167°E)
Time: 15:11:24
(UTC+00:00)

FENGYUN 3A - Pass Details

Date: 08 February 2023
Orbit: 824 x 835 km, 98.5° (Epoch: 23 March)

Event Time Altitude Azimuth Distance (km) Brightness Sun altitude
Exits shadow 15:02:48 40° 260° (W) 1,223 4.3 -24.1°
Drops below altitude 10° 15:07:21 10° 208° (SSW) 2,479 6.4 -23.6°
Sets 15:09:52 0° 200° (SSW) 3,421 7.2 -23.3°
